Regional Weather Roundup
Issued by NWS

Home | Current Version | Previous Version | Graphics & Text | Print | Product List | Glossary On
Versions: 1 2 3 4 5 6 7 8 9 10 11 12 13 14 15 16 17 18 19 20 21 22 23 24 25 26 27 28 29 30 31 32 33 34 35 36 37 38 39 40 41 42 43 44 45 46 47 48 49 50
000
ASUS43 KOAX 170702
RWRNE

WEATHER ROUNDUP FOR NEBRASKA
NATIONAL WEATHER SERVICE OMAHA NE
200 AM CDT THU AUG 17 2017

NOTES: SATELLITE DATA IS BEING USED TO AUGMENT CLOUD COVER ABOVE
       12000 FEET.
       "FAIR" INDICATES FEW OR NO CLOUDS BELOW 12,000 FEET WITH NO
       SIGNIFICANT WEATHER AND/OR OBSTRUCTIONS TO VISIBILITY.


NEZ001>004-019>022-054>056-170800-
NEBRASKA PANHANDLE

CITY           SKY/WX    TMP DP  RH WIND       PRES   REMARKS
SCOTTSBLUFF    CLEAR     55  50  83 E5        30.07S
ALLIANCE       CLEAR     52  49  89 W5        30.06F
CHADRON        CLEAR     53  49  86 SW3       30.02F
GORDON         FAIR      50  48  94 CALM      30.03F
KIMBALL        CLEAR     53  51  92 SW5       30.14S
SIDNEY         CLEAR     51  48  89 SW9       30.11S
$$

NEZ057>060-069>072-079>082-170800-
SOUTHWEST NEBRASKA

CITY           SKY/WX    TMP DP  RH WIND       PRES   REMARKS
NORTH PLATTE   CLEAR     55  53  93 CALM      30.02R
IMPERIAL       CLEAR     56  52  86 W6        30.07R
LEXINGTON      CLEAR     57  55  92 NW5       30.00S
MCCOOK         CLEAR     56  56 100 SW7       30.04R
OGALLALA       CLEAR     54  53  96 W5        30.06S
$$

NEZ005>010-023>029-035>040-094-170800-
NORTH CENTRAL NEBRASKA

CITY           SKY/WX    TMP DP  RH WIND       PRES   REMARKS
VALENTINE      CLEAR     52  47  83 W6        29.99S
AINSWORTH      CLEAR     54  51  92 W6        29.98S
BROKEN BOW     CLEAR     59  55  87 CALM      29.99R
O`NEILL        CLEAR     60  58  94 W10       29.92S
ORD            CLEAR     59  56  89 NW6       29.94S
THEDFORD       CLEAR     55  53  90 CALM      30.02S
$$

NEZ041-046>049-061>064-073>077-083>087-170800-
SOUTH CENTRAL NEBRASKA

CITY           SKY/WX    TMP DP  RH WIND       PRES   REMARKS
GRAND ISLAND   CLEAR     61  61 100 W7        29.95S
AURORA         CLEAR     60  60 100 W7        29.93F
HASTINGS       CLEAR     59  57  93 W5        29.97S
HEBRON         CLEAR     64  62  92 W3        29.92F
HOLDREGE       CLEAR     58  56  90 W7        30.00R
KEARNEY        CLEAR     60  56  86 NW7       29.98R
YORK           CLEAR     61  61 100 W8        29.92S
$$

NEZ011>018-030>034-042>045-170800-
NORTHEAST NEBRASKA

CITY           SKY/WX    TMP DP  RH WIND       PRES   REMARKS
NORFOLK        MOCLDY    64  59  83 W14       29.86S
ALBION         CLEAR     62  60  91 NW7       29.90F
BLAIR          RAIN      65  62  88 W8        29.83S
COLUMBUS       CLEAR     63  60  90 W8        29.88S
FREMONT        CLEAR     65  61  87 W10G16    29.85R
TEKAMAH        MOCLDY    65  61  87 SW7       29.80F
WAYNE          CLOUDY    65  63  91 W9        29.82S
$$

NEZ050>053-065>068-078-088>093-170800-
SOUTHEAST NEBRASKA

CITY           SKY/WX    TMP DP  RH WIND       PRES   REMARKS
LINCOLN        CLEAR     66  61  84 W10       29.88S
OMAHA EPPLEY   CLEAR     67  60  78 W8        29.82S
BEATRICE       CLEAR     65  64  95 W7        29.89S
FALLS CITY     CLEAR     67  63  87 NW7       29.85S
NEBRASKA CITY  CLEAR     65  64  96 W8        29.85S
PLATTSMOUTH    CLEAR     63  60  90 W6        29.85S
$$

NEZ044-045-051>053-067-170800-
OMAHA AREA

CITY           SKY/WX    TMP DP  RH WIND       PRES   REMARKS
OMAHA EPPLEY   CLEAR     67  60  78 W8        29.82S
BLAIR          RAIN      65  62  88 W8        29.83S
FREMONT        CLEAR     65  61  87 W10G16    29.85R
MILLARD        CLEAR     67  62  83 W7        29.84R
OFFUTT AFB     CLEAR     66  60  81 W7        29.83R
PLATTSMOUTH    CLEAR     63  60  90 W6        29.85S
WAHOO          FAIR      64  62  93 W10       29.85S
$$




USA.gov is the U.S. government's official web portal to all federal, state and local government web resources and services.